Language: 


Des rapports , des résumés tant et plus, au choix de chacun....


Données statistiques de la station
Quotidien Rapport Octobre 16, 2017 Unités:  Anglais    Métrique   les deux
« Précédent Jour
Suivant Jour »
Quotidien Hebdomadaire Mensuel Annuel Actuel
  Haut: Bas: Moyen:
Température: 79.5 °F 32 °F 67.1 °F
Pt de rosée: 64.4 °F 57.2 °F 60.4 °F
Humidité: 96 % 0 % 80 %
Vitesse du vent: 13.6 mph 0 mph 3.2 mph
Rafales: 17.7 mph - -
Vent:- - SSW
Pression: 30.2 in 0 in -
Précipitation: 0 in    
Historical Graphs
 
 
Données statistiques pour Octobre 16, 2017
Heure Température Point de rosée Pression Vent Vitesse du vent Refales Humidité Pluie (taux horaire)
00:02 62.6 °F 59 °F 30.1 in Calm     90 % 0 in
00:07 62.6 °F 59 °F 30.1 in Calm     90 % 0 in
00:12 62.6 °F 59 °F 30.1 in Calm     90 % 0 in
00:17 62.6 °F 60.8 °F 30.1 in Calm     91 % 0 in
00:22 62.4 °F 60.8 °F 30.1 in Calm   1.3 mph 91 % 0 in
00:27 62.4 °F 60.8 °F 30.1 in Calm   4 mph 91 % 0 in
00:32 62.4 °F 60.8 °F 30.1 in Calm   4 mph 91 % 0 in
00:37 62.4 °F 60.8 °F 30.1 in Calm   2.7 mph 91 % 0 in
00:39 62.4 °F 60.8 °F 30.1 in Calm   2.7 mph 91 % 0 in
00:44 62.2 °F 59 °F 30.1 in Calm   2.7 mph 91 % 0 in
00:49 62.1 °F 59 °F 30.1 in Calm   1.1 mph 91 % 0 in
00:54 62.1 °F 59 °F 30.1 in Calm   1.1 mph 91 % 0 in
00:59 61.9 °F 59 °F 30.1 in Calm     91 % 0 in
01:05 61.9 °F 59 °F 30.1 in Calm     91 % 0 in
01:10 62.1 °F 59 °F 30.1 in SSW 2.7 mph 2.7 mph 91 % 0 in
01:15 62.1 °F 59 °F 30.1 in Calm   2.7 mph 91 % 0 in
01:20 62.2 °F 60.8 °F 30.1 in Calm   6 mph 93 % 0 in
01:25 62.2 °F 60.8 °F 30.1 in South 3.8 mph 6 mph 93 % 0 in
01:30 62.6 °F 60.8 °F 30.1 in SSE 2.9 mph 8.7 mph 93 % 0 in
01:35 62.8 °F 60.8 °F 30.1 in South 2 mph 8.7 mph 93 % 0 in
01:40 63 °F 60.8 °F 30.1 in Calm   6.7 mph 92 % 0 in
01:45 63 °F 60.8 °F 30.1 in Calm   4.3 mph 92 % 0 in
01:50 63 °F 60.8 °F 30.1 in Calm   3.8 mph 92 % 0 in
01:55 63 °F 60.8 °F 30.1 in Calm   2.7 mph 92 % 0 in
02:00 63 °F 60.8 °F 30.1 in Calm   2.9 mph 92 % 0 in
02:05 63.1 °F 60.8 °F 30.1 in Calm   2.9 mph 92 % 0 in
02:10 63.3 °F 60.8 °F 30.1 in Calm   3.6 mph 92 % 0 in
02:15 63.3 °F 60.8 °F 30.1 in Calm   3.6 mph 92 % 0 in
02:20 63.5 °F 60.8 °F 30.1 in SSE 2.9 mph 2.9 mph 92 % 0 in
02:25 63.5 °F 60.8 °F 30.1 in Calm   4.3 mph 92 % 0 in
02:30 63.7 °F 60.8 °F 30.1 in Calm   4.3 mph 92 % 0 in
02:35 63.7 °F 60.8 °F 30.1 in Calm     92 % 0 in
02:40 63.7 °F 60.8 °F 30.1 in Calm   3.6 mph 92 % 0 in
02:45 63.9 °F 60.8 °F 30.1 in Calm   3.6 mph 92 % 0 in
02:50 63.9 °F 60.8 °F 30.1 in South 2.9 mph 3.8 mph 92 % 0 in
02:55 63.9 °F 60.8 °F 30.1 in Calm   5.8 mph 92 % 0 in
03:02 32 °F 60.8 °F 0 in South 2.2 mph 2.2 mph 0 % 0 in
03:07 63.7 °F 60.8 °F 30.1 in Calm   5.4 mph 92 % 0 in
03:12 63.9 °F 60.8 °F 30.1 in Calm   5.4 mph 92 % 0 in
03:17 64 °F 60.8 °F 30.1 in Calm   5.8 mph 92 % 0 in
03:22 64 °F 60.8 °F 30.1 in Calm   5.8 mph 92 % 0 in
03:27 64 °F 60.8 °F 30.1 in Calm   3.8 mph 92 % 0 in
03:32 64 °F 60.8 °F 30.1 in Calm   3.8 mph 92 % 0 in
03:37 64 °F 60.8 °F 30.1 in Calm   3.8 mph 92 % 0 in
03:42 64 °F 60.8 °F 30.1 in SW 2.2 mph 4.7 mph 92 % 0 in
03:47 64 °F 60.8 °F 30.1 in Calm   4.7 mph 92 % 0 in
03:52 64 °F 60.8 °F 30.1 in Calm   4.3 mph 92 % 0 in
03:57 64.2 °F 62.6 °F 30.1 in South 2.7 mph 4.7 mph 92 % 0 in
04:02 64.2 °F 62.6 °F 30.1 in South 4.9 mph 4.9 mph 92 % 0 in
04:07 64 °F 60.8 °F 30.1 in South 3.8 mph 5.6 mph 92 % 0 in
04:11 64 °F 60.8 °F 30.1 in SSE 3.1 mph 5.6 mph 92 % 0 in
04:12 64 °F 60.8 °F 30.1 in South 3.6 mph 5.6 mph 92 % 0 in
04:17 64 °F 60.8 °F 30.1 in South 4 mph 5.4 mph 92 % 0 in
04:22 64 °F 60.8 °F 30.1 in SW 1.1 mph 6.3 mph 92 % 0 in
04:27 64 °F 60.8 °F 30.1 in Calm   6.3 mph 92 % 0 in
04:32 63.9 °F 60.8 °F 30.1 in SSE 2.7 mph 4.7 mph 92 % 0 in
04:37 63.9 °F 60.8 °F 30.1 in South 2.5 mph 4.9 mph 92 % 0 in
04:42 63.9 °F 60.8 °F 30.1 in SSW 1.1 mph 4.9 mph 92 % 0 in
04:47 63.9 °F 60.8 °F 30.1 in Calm   4 mph 92 % 0 in
04:52 63.7 °F 60.8 °F 30.1 in Calm   3.8 mph 92 % 0 in
04:57 63.3 °F 60.8 °F 30.1 in Calm   4.3 mph 92 % 0 in
05:02 63.1 °F 60.8 °F 30.1 in Calm   4.3 mph 92 % 0 in
05:07 63.1 °F 60.8 °F 30.1 in South 2.7 mph 4.3 mph 92 % 0 in
05:12 63 °F 60.8 °F 30.1 in Calm   6.3 mph 92 % 0 in
05:17 62.8 °F 60.8 °F 30.1 in Calm   6.3 mph 92 % 0 in
05:22 62.4 °F 60.8 °F 30.1 in Calm   3.6 mph 92 % 0 in
05:27 62.2 °F 59 °F 30.1 in Calm   3.6 mph 92 % 0 in
05:32 62.1 °F 59 °F 30.1 in Calm   3.6 mph 92 % 0 in
05:38 61.9 °F 59 °F 30.1 in South 0.9 mph 2.9 mph 92 % 0 in
05:39 61.7 °F 59 °F 30.1 in SSW 4.5 mph 4.5 mph 92 % 0 in
05:44 61.7 °F 59 °F 30.1 in Calm   4.7 mph 92 % 0 in
05:49 61.5 °F 59 °F 30.1 in SSE 2.5 mph 4.7 mph 92 % 0 in
05:54 61.5 °F 59 °F 30.1 in Calm   3.4 mph 92 % 0 in
05:59 61.5 °F 59 °F 30.1 in SSW 3.4 mph 5.4 mph 93 % 0 in
06:04 61.5 °F 59 °F 30.1 in Calm   5.4 mph 93 % 0 in
06:09 61.5 °F 59 °F 30.1 in Calm   3.4 mph 93 % 0 in
06:14 61.3 °F 59 °F 30.1 in Calm   6 mph 93 % 0 in
06:19 61.3 °F 59 °F 30.1 in Calm   6 mph 93 % 0 in
06:24 61.3 °F 59 °F 30.1 in Calm   5.4 mph 93 % 0 in
06:30 61 °F 59 °F 30.1 in Calm   1.1 mph 93 % 0 in
06:35 61 °F 59 °F 30.1 in Calm     93 % 0 in
06:40 60.8 °F 59 °F 30.1 in Calm   2.5 mph 93 % 0 in
06:45 60.4 °F 59 °F 30.1 in Calm   2.5 mph 94 % 0 in
06:50 60.4 °F 59 °F 30.1 in Calm     94 % 0 in
06:55 60.3 °F 59 °F 30.1 in Calm   3.6 mph 94 % 0 in
07:00 60.3 °F 59 °F 30.1 in Calm   3.6 mph 94 % 0 in
07:05 60.3 °F 59 °F 30.1 in Calm   3.8 mph 94 % 0 in
07:10 60.4 °F 59 °F 30.1 in Calm   5.8 mph 95 % 0 in
07:15 60.4 °F 59 °F 30.1 in Calm   5.8 mph 95 % 0 in
07:20 60.4 °F 59 °F 30.1 in Calm   3.6 mph 95 % 0 in
07:25 60.4 °F 59 °F 30.1 in Calm   2 mph 95 % 0 in
07:26 60.4 °F 59 °F 30.1 in Calm   2 mph 95 % 0 in
07:31 60.4 °F 59 °F 30.1 in Calm   4 mph 95 % 0 in
07:36 60.4 °F 59 °F 30.1 in Calm   4 mph 95 % 0 in
07:41 60.4 °F 59 °F 30.1 in Calm   2.9 mph 95 % 0 in
07:46 60.3 °F 59 °F 30.1 in Calm   4 mph 95 % 0 in
07:51 60.3 °F 59 °F 30.1 in Calm   4.3 mph 95 % 0 in
07:53 60.3 °F 59 °F 30.1 in Calm   4.3 mph 95 % 0 in
07:58 60.3 °F 59 °F 30.1 in Calm   4.5 mph 95 % 0 in
08:03 60.3 °F 59 °F 30.1 in Calm   4.5 mph 95 % 0 in
08:08 60.1 °F 59 °F 30.1 in Calm   2.5 mph 95 % 0 in
08:13 60.1 °F 59 °F 30.1 in South 2.5 mph 2.5 mph 96 % 0 in
08:18 60.1 °F 59 °F 30.1 in Calm   3.8 mph 96 % 0 in
08:23 59.9 °F 59 °F 30.1 in SSW 0.9 mph 3.8 mph 96 % 0 in
08:28 59.9 °F 59 °F 30.1 in Calm   1.1 mph 96 % 0 in
08:33 59.9 °F 59 °F 30.1 in Calm   3.6 mph 96 % 0 in
08:38 60.1 °F 59 °F 30.1 in Calm   3.6 mph 96 % 0 in
08:43 60.1 °F 59 °F 30.1 in Calm   3.4 mph 96 % 0 in
08:48 60.1 °F 59 °F 30.1 in Calm   4.3 mph 96 % 0 in
08:53 60.3 °F 59 °F 30.1 in SSE 3.1 mph 4.3 mph 96 % 0 in
08:58 60.4 °F 59 °F 30.1 in Calm   6.5 mph 96 % 0 in
09:03 60.6 °F 60.8 °F 30.1 in South 2 mph 6.5 mph 96 % 0 in
09:08 60.8 °F 60.8 °F 30.1 in South 1.1 mph 6 mph 96 % 0 in
09:13 61 °F 60.8 °F 30.1 in SSE 2.7 mph 3.8 mph 96 % 0 in
09:18 61.2 °F 60.8 °F 30.1 in SSE 1.6 mph 4 mph 95 % 0 in
09:23 61.3 °F 60.8 °F 30.1 in SSE 2.7 mph 6 mph 95 % 0 in
09:28 61.5 °F 60.8 °F 30.1 in South 3.8 mph 6 mph 95 % 0 in
09:33 61.5 °F 60.8 °F 30.1 in South 4 mph 7.4 mph 95 % 0 in
09:38 61.7 °F 60.8 °F 30.1 in South 2.7 mph 7.4 mph 95 % 0 in
09:43 61.7 °F 60.8 °F 30.1 in SSE 4 mph 6.3 mph 94 % 0 in
09:48 62.1 °F 60.8 °F 30.1 in South 2 mph 6.3 mph 94 % 0 in
09:53 62.6 °F 60.8 °F 30.1 in SSW 3.1 mph 5.6 mph 94 % 0 in
09:58 63.1 °F 60.8 °F 30.1 in SSE 3.8 mph 6.3 mph 93 % 0 in
10:04 63.5 °F 62.6 °F 30.1 in South 3.6 mph 6.3 mph 93 % 0 in
10:09 63.7 °F 60.8 °F 30.1 in SSE 4.7 mph 7.6 mph 92 % 0 in
10:14 64.2 °F 62.6 °F 30.1 in Calm   7.6 mph 92 % 0 in
10:19 64.6 °F 60.8 °F 30.1 in SSE 2.9 mph 7.6 mph 90 % 0 in
10:24 64.9 °F 62.6 °F 30.1 in South 4.5 mph 7.6 mph 90 % 0 in
10:29 65.3 °F 62.6 °F 30.1 in SSW 4 mph 7.4 mph 89 % 0 in
10:34 65.5 °F 62.6 °F 30.1 in SSE 3.6 mph 6.7 mph 89 % 0 in
10:39 65.8 °F 62.6 °F 30.1 in SSE 2 mph 6.5 mph 88 % 0 in
10:44 66.2 °F 62.6 °F 30.1 in SSE 7.8 mph 9.4 mph 87 % 0 in
10:49 66.6 °F 62.6 °F 30.1 in South 5.4 mph 10.7 mph 86 % 0 in
10:54 66.7 °F 62.6 °F 30.1 in South 3.4 mph 10.7 mph 85 % 0 in
10:59 67.3 °F 62.6 °F 30.1 in SSW 4.3 mph 8.1 mph 85 % 0 in
11:04 67.6 °F 62.6 °F 30.1 in South 2.7 mph 8.5 mph 84 % 0 in
11:09 68 °F 62.6 °F 30.1 in South 3.6 mph 8.5 mph 83 % 0 in
11:14 68.2 °F 62.6 °F 30.1 in SSE 3.1 mph 8.5 mph 81 % 0 in
11:19 68.5 °F 62.6 °F 30.1 in SSW 1.3 mph 8.5 mph 82 % 0 in
11:24 68.9 °F 62.6 °F 30.1 in SSE 9.2 mph 10.1 mph 80 % 0 in
11:29 68.9 °F 62.6 °F 30.1 in South 2 mph 10.5 mph 79 % 0 in
11:34 69.3 °F 62.6 °F 30.1 in SSE 8.1 mph 10.5 mph 79 % 0 in
11:39 69.4 °F 62.6 °F 30.1 in SSE 6.9 mph 11 mph 78 % 0 in
11:44 69.8 °F 62.6 °F 30.1 in South 11 mph 11 mph 77 % 0 in
11:45 69.8 °F 62.6 °F 30.1 in SW 8.1 mph 11 mph 77 % 0 in
11:50 70 °F 62.6 °F 30.1 in SSE 6 mph 11 mph 76 % 0 in
11:55 70.2 °F 62.6 °F 30.1 in SSE 10.7 mph 10.7 mph 76 % 0 in
12:00 70.5 °F 62.6 °F 30.1 in SSW 7.2 mph 10.7 mph 76 % 0 in
12:05 71.1 °F 62.6 °F 30.1 in SSW 7.8 mph 10.7 mph 76 % 0 in
12:15 71.2 °F 62.6 °F 30.1 in SSW 4 mph 12.3 mph 73 % 0 in
12:20 71.6 °F 62.6 °F 30.1 in SSW 5.8 mph 12.3 mph 74 % 0 in
12:25 72.1 °F 62.6 °F 30.1 in SE 3.8 mph 10.3 mph 72 % 0 in
12:30 72.3 °F 62.6 °F 30.1 in South 6.3 mph 10.3 mph 73 % 0 in
12:35 72.5 °F 64.4 °F 30.1 in South 6.5 mph 9.2 mph 73 % 0 in
12:40 72.9 °F 62.6 °F 30.1 in South 4.9 mph 10.5 mph 71 % 0 in
12:45 73.4 °F 62.6 °F 30.1 in South 3.6 mph 10.5 mph 70 % 0 in
12:50 73.6 °F 62.6 °F 30.1 in South 5.4 mph 8.7 mph 69 % 0 in
12:55 74.5 °F 64.4 °F 30.1 in SSW 5.6 mph 8.7 mph 70 % 0 in
13:00 74.8 °F 64.4 °F 30.1 in SW 3.1 mph 10.1 mph 68 % 0 in
13:05 75.4 °F 64.4 °F 30.1 in SSE 7.8 mph 10.1 mph 68 % 0 in
13:11 75.4 °F 62.6 °F 30.1 in South 8.1 mph 10.1 mph 65 % 0 in
13:16 75.4 °F 62.6 °F 30.1 in South 8.7 mph 15.4 mph 63 % 0 in
13:21 75.9 °F 62.6 °F 30.1 in South 8.7 mph 15.4 mph 64 % 0 in
13:26 76.3 °F 62.6 °F 30.1 in South 5.6 mph 10.5 mph 62 % 0 in
13:31 76.3 °F 62.6 °F 30.1 in SSE 5.8 mph 10.5 mph 61 % 0 in
13:36 76.6 °F 62.6 °F 30.1 in South 4.9 mph 12.5 mph 62 % 0 in
13:41 77 °F 62.6 °F 30.1 in South 8.1 mph 12.5 mph 60 % 0 in
13:46 77.2 °F 62.6 °F 30.1 in SSW 9.6 mph 12.3 mph 60 % 0 in
13:51 77.5 °F 62.6 °F 30.1 in SSW 7.2 mph 11.2 mph 59 % 0 in
13:56 77.7 °F 60.8 °F 30.1 in South 9.4 mph 12.5 mph 57 % 0 in
14:01 77.7 °F 60.8 °F 30.1 in SSW 13 mph 13 mph 55 % 0 in
14:06 77.7 °F 60.8 °F 30.1 in South 6.3 mph 16.8 mph 56 % 0 in
14:11 77.7 °F 60.8 °F 30.1 in South 8.5 mph 16.8 mph 55 % 0 in
14:16 77.7 °F 60.8 °F 30.1 in NNW 7.8 mph 13.6 mph 55 % 0 in
14:21 77.9 °F 62.6 °F 30.1 in South 8.7 mph 13.6 mph 57 % 0 in
14:26 77.9 °F 60.8 °F 30.1 in South 12.1 mph 17.7 mph 56 % 0 in
14:31 78.3 °F 60.8 °F 30.1 in South 6 mph 17.7 mph 55 % 0 in
14:36 78.6 °F 62.6 °F 30.1 in South 8.1 mph 14.5 mph 56 % 0 in
14:41 78.6 °F 60.8 °F 30.1 in SSW 12.1 mph 14.5 mph 55 % 0 in
14:46 79 °F 62.6 °F 30.1 in South 5.6 mph 12.5 mph 56 % 0 in
14:51 79.2 °F 62.6 °F 30.1 in South 7.6 mph 13 mph 55 % 0 in
14:56 79.2 °F 62.6 °F 30.1 in South 10.3 mph 13 mph 56 % 0 in
15:02 79 °F 60.8 °F 30.1 in SSW 5.6 mph 12.3 mph 54 % 0 in
15:03 79.2 °F 62.6 °F 30.1 in SSW 6.3 mph 12.3 mph 55 % 0 in
15:08 79.3 °F 62.6 °F 30.1 in SSW 8.1 mph 12.3 mph 55 % 0 in
15:13 79.5 °F 60.8 °F 30.1 in SSW 5.4 mph 10.7 mph 53 % 0 in
15:18 79.3 °F 59 °F 30.1 in SSW 9.8 mph 12.3 mph 50 % 0 in
15:23 79.3 °F 60.8 °F 30.1 in WSW 12.5 mph 12.5 mph 52 % 0 in
15:28 79.2 °F 60.8 °F 30.1 in South 13.6 mph 14.3 mph 52 % 0 in
15:33 79.3 °F 60.8 °F 30.1 in SSW 11 mph 15.9 mph 52 % 0 in
15:39 79.3 °F 60.8 °F 30.1 in SSW 5.6 mph 15.9 mph 52 % 0 in
15:44 79.5 °F 60.8 °F 30.1 in SW 12.5 mph 13 mph 53 % 0 in
15:49 79.2 °F 60.8 °F 30.1 in SW 8.5 mph 12.5 mph 52 % 0 in
15:54 79.2 °F 60.8 °F 30.1 in South 6.5 mph 11.2 mph 53 % 0 in
15:59 78.8 °F 60.8 °F 30.1 in South 10.1 mph 10.1 mph 52 % 0 in
16:04 78.8 °F 60.8 °F 30 in SSW 5.8 mph 12.1 mph 52 % 0 in
16:09 78.8 °F 60.8 °F 30 in South 6.3 mph 12.1 mph 53 % 0 in
16:14 79 °F 60.8 °F 30 in SW 6.3 mph 12.3 mph 54 % 0 in
16:19 78.6 °F 60.8 °F 30 in South 5.6 mph 12.8 mph 53 % 0 in
16:24 78.4 °F 60.8 °F 30 in SSW 5.4 mph 12.8 mph 56 % 0 in
16:29 77.7 °F 60.8 °F 30 in South 9.2 mph 9.2 mph 55 % 0 in
16:34 77.4 °F 60.8 °F 30 in SW 4.3 mph 11 mph 56 % 0 in
16:39 77.4 °F 60.8 °F 30 in SW 5.6 mph 11 mph 56 % 0 in
16:44 77.2 °F 60.8 °F 30 in SSW 5.8 mph 10.1 mph 56 % 0 in
16:49 77 °F 60.8 °F 30 in South 4.3 mph 10.1 mph 57 % 0 in
16:54 76.6 °F 60.8 °F 30 in South 4 mph 9.6 mph 58 % 0 in
16:59 76.5 °F 60.8 °F 30 in SSW 6.3 mph 9.6 mph 58 % 0 in
17:04 76.1 °F 60.8 °F 30 in South 4.7 mph 9.4 mph 58 % 0 in
17:09 75.9 °F 60.8 °F 30 in SSE 3.1 mph 9.4 mph 60 % 0 in
17:14 75.6 °F 60.8 °F 30 in South 3.4 mph 10.1 mph 60 % 0 in
17:19 75.4 °F 60.8 °F 30 in South 6.3 mph 10.3 mph 60 % 0 in
17:24 75.2 °F 60.8 °F 30 in SSW 6.5 mph 10.3 mph 61 % 0 in
17:29 75 °F 60.8 °F 30 in South 5.4 mph 8.5 mph 62 % 0 in
17:34 74.8 °F 60.8 °F 30 in SSW 4 mph 6.5 mph 63 % 0 in
17:39 74.5 °F 60.8 °F 30 in SW 5.8 mph 8.7 mph 63 % 0 in
17:45 74.5 °F 62.6 °F 30 in SSW 6.3 mph 8.7 mph 64 % 0 in
17:50 74.5 °F 62.6 °F 30 in SW 5.6 mph 7.6 mph 64 % 0 in
17:55 74.3 °F 62.6 °F 30 in SSW 6.3 mph 7.8 mph 64 % 0 in
18:00 74.1 °F 60.8 °F 30.1 in South 6.3 mph 7.8 mph 64 % 0 in
18:05 73.9 °F 60.8 °F 30.1 in Calm   6.5 mph 64 % 0 in
18:10 73.6 °F 60.8 °F 30.1 in SSW 4.3 mph 6.5 mph 65 % 0 in
18:15 73.2 °F 60.8 °F 30.1 in Calm   5.6 mph 66 % 0 in
18:20 72.9 °F 60.8 °F 30.1 in Calm   5.4 mph 66 % 0 in
18:25 72.7 °F 60.8 °F 30.1 in South 3.6 mph 5.6 mph 66 % 0 in
18:30 72.3 °F 60.8 °F 30.1 in Calm   5.6 mph 67 % 0 in
18:31 72.1 °F 60.8 °F 30.1 in SW 0.9 mph 5.6 mph 67 % 0 in
18:36 72 °F 60.8 °F 30.1 in SW 2.9 mph 5.6 mph 67 % 0 in
18:41 71.4 °F 60.8 °F 30.1 in South 1.6 mph 3.1 mph 68 % 0 in
18:46 71.1 °F 60.8 °F 30.1 in Calm   4 mph 68 % 0 in
18:51 70.7 °F 60.8 °F 30.1 in SSW 3.4 mph 5.4 mph 68 % 0 in
18:56 70.3 °F 59 °F 30.1 in Calm   5.8 mph 69 % 0 in
19:01 70.2 °F 59 °F 30.1 in SSW 3.1 mph 5.8 mph 69 % 0 in
19:06 70 °F 59 °F 30.1 in South 4.9 mph 4.9 mph 69 % 0 in
19:11 70 °F 59 °F 30.1 in SSE 3.6 mph 4.9 mph 70 % 0 in
19:16 69.8 °F 59 °F 30.1 in SW 2.5 mph 5.4 mph 70 % 0 in
19:21 69.8 °F 59 °F 30.1 in SSE 3.6 mph 5.4 mph 70 % 0 in
19:26 69.6 °F 59 °F 30.1 in SSW 3.1 mph 5.4 mph 70 % 0 in
19:31 69.6 °F 60.8 °F 30.1 in South 3.6 mph 7.8 mph 71 % 0 in
19:36 69.6 °F 60.8 °F 30.1 in Calm   7.8 mph 71 % 0 in
19:41 69.4 °F 59 °F 30.1 in Calm   6.5 mph 71 % 0 in
19:46 69.3 °F 59 °F 30.1 in WSW 2.7 mph 6.5 mph 71 % 0 in
19:51 69.3 °F 59 °F 30.1 in South 3.4 mph 6 mph 71 % 0 in
19:57 69.1 °F 60.8 °F 30.1 in SW 3.8 mph 6 mph 72 % 0 in
20:02 68.9 °F 60.8 °F 30.1 in SW 1.6 mph 4.9 mph 72 % 0 in
20:07 68.9 °F 60.8 °F 30.1 in Calm   3.8 mph 72 % 0 in
20:12 68.7 °F 59 °F 30.1 in West 4.9 mph 7.6 mph 73 % 0 in
20:17 68.5 °F 59 °F 30.1 in WSW 4.5 mph 7.6 mph 73 % 0 in
20:22 68 °F 59 °F 30.1 in WSW 3.6 mph 6.5 mph 74 % 0 in
20:27 67.5 °F 59 °F 30.1 in WSW 5.8 mph 6.5 mph 75 % 0 in
20:32 67.3 °F 59 °F 30.1 in SW 7.4 mph 8.5 mph 76 % 0 in
20:37 67.3 °F 60.8 °F 30.1 in WSW 5.8 mph 8.5 mph 77 % 0 in
20:42 66.9 °F 59 °F 30.1 in WSW 6.5 mph 8.5 mph 77 % 0 in
20:47 66.7 °F 59 °F 30.1 in West 3.1 mph 6.9 mph 78 % 0 in
20:52 66.6 °F 59 °F 30.1 in WSW 6.3 mph 7.8 mph 78 % 0 in
20:58 66.6 °F 60.8 °F 30.1 in WSW 10.5 mph 10.5 mph 79 % 0 in
21:03 66.7 °F 60.8 °F 30.1 in WSW 11 mph 13 mph 79 % 0 in
21:08 66.7 °F 60.8 °F 30.1 in WSW 10.5 mph 13 mph 79 % 0 in
21:10 66.7 °F 60.8 °F 30.1 in WSW 12.8 mph 13.2 mph 79 % 0 in
21:15 66.6 °F 60.8 °F 30.1 in WSW 8.1 mph 13.2 mph 79 % 0 in
21:20 66.4 °F 60.8 °F 30.1 in WSW 9.4 mph 11.2 mph 80 % 0 in
21:25 66.2 °F 60.8 °F 30.1 in West 7.2 mph 11.2 mph 80 % 0 in
21:30 65.8 °F 59 °F 30.1 in WSW 5.6 mph 10.1 mph 80 % 0 in
21:35 65.3 °F 59 °F 30.1 in Calm   7.8 mph 80 % 0 in
21:40 64.8 °F 59 °F 30.1 in Calm   6 mph 80 % 0 in
21:45 64.2 °F 59 °F 30.1 in WSW 5.4 mph 5.4 mph 81 % 0 in
21:50 63.9 °F 59 °F 30.1 in WSW 2.9 mph 5.6 mph 82 % 0 in
21:55 63.7 °F 59 °F 30.1 in WSW 3.8 mph 5.6 mph 82 % 0 in
22:00 63.3 °F 57.2 °F 30.1 in Calm   4.9 mph 83 % 0 in
22:05 63 °F 57.2 °F 30.1 in Calm   4 mph 83 % 0 in
22:10 62.8 °F 57.2 °F 30.1 in Calm     84 % 0 in
22:15 62.4 °F 59 °F 30.1 in Calm     85 % 0 in
22:20 62.1 °F 57.2 °F 30.1 in Calm     85 % 0 in
22:25 61.7 °F 57.2 °F 30.1 in Calm     85 % 0 in
22:30 61.3 °F 57.2 °F 30.1 in Calm     86 % 0 in
22:35 61.3 °F 57.2 °F 30.1 in WSW 3.4 mph 3.4 mph 87 % 0 in
22:40 61.2 °F 57.2 °F 30.1 in Calm   3.4 mph 87 % 0 in
22:45 61 °F 57.2 °F 30.1 in Calm   0.9 mph 88 % 0 in
22:50 60.8 °F 57.2 °F 30.1 in Calm     88 % 0 in
22:55 60.8 °F 57.2 °F 30.1 in Calm     89 % 0 in
23:00 60.8 °F 57.2 °F 30.1 in Calm   3.4 mph 90 % 0 in
23:05 61 °F 57.2 °F 30.1 in SW 3.8 mph 6 mph 90 % 0 in
23:10 61 °F 57.2 °F 30.1 in Calm   6 mph 90 % 0 in
23:15 61 °F 59 °F 30.1 in Calm   6.5 mph 91 % 0 in
23:20 61 °F 59 °F 30.1 in Calm   6.5 mph 91 % 0 in
23:25 61 °F 59 °F 30.1 in Calm   4 mph 91 % 0 in
23:31 61 °F 59 °F 30.2 in Calm   5.8 mph 92 % 0 in
23:36 61 °F 59 °F 30.2 in SW 4 mph 5.8 mph 92 % 0 in
23:41 61 °F 59 °F 30.2 in WSW 4 mph 6 mph 92 % 0 in
23:46 61 °F 59 °F 30.2 in WSW 5.4 mph 6.5 mph 92 % 0 in
23:51 61 °F 59 °F 30.2 in WSW 5.8 mph 6.7 mph 93 % 0 in
23:56 61 °F 59 °F 30.2 in SW 3.8 mph 6.7 mph 93 % 0 in
Le Gheer Warneton
Courtoisie de Weather Underground - 2.25 mb

Mise a jour : 16-12-17 12:12:11
Généré par Cumulus 1.9.4 (1099)